| time (UTC) | temp F | wind direction | speed MPH | gust MPH | rain 1hr in | rain 24hr in | rain mn in | humidity % | barometer mb |
| 20260904032206 | 56 | 327 | 0.0 | 0.0 | 0.00 | 0.00 | 0.00 | 88 | 1012.3 |
| 20260904031706 | 57 | 326 | 0.0 | 0.0 | 0.00 | 0.00 | 0.00 | 87 | 1012.2 |
| 20260904031201 | 57 | 325 | 0.0 | 0.0 | 0.00 | 0.00 | 0.00 | 87 | 1012.2 |
| 20260904030657 | 57 | 325 | 0.0 | 0.0 | 0.00 | 0.00 | 0.00 | 86 | 1012.2 |
| 20260904030152 | 57 | 330 | 0.0 | 0.0 | 0.00 | 0.00 | 0.00 | 86 | 1012.0 |
| 20260904025648 | 57 | 331 | 0.0 | 0.0 | 0.00 | 0.00 | 0.00 | 85 | 1012.1 |
| 20260904025143 | 58 | 331 | 0.0 | 0.0 | 0.00 | 0.00 | 0.00 | 84 | 1012.1 |
| 20260904024638 | 58 | 331 | 0.0 | 0.0 | 0.00 | 0.00 | 0.00 | 82 | 1011.9 |
| 20260904024134 | 59 | 331 | 0.0 | 0.0 | 0.00 | 0.00 | 0.00 | 83 | 1012.1 |
| 20260904023630 | 59 | 335 | 0.0 | 0.0 | 0.00 | 0.00 | 0.00 | 82 | 1012.1 |
| 20260904023126 | 60 | 336 | 0.0 | 0.0 | 0.00 | 0.00 | 0.00 | 83 | 1011.8 |
| 20260904022625 | 60 | 336 | 0.0 | 0.0 | 0.00 | 0.00 | 0.00 | 83 | 1011.8 |
| 20260904022122 | 60 | 335 | 0.0 | 0.0 | 0.00 | 0.00 | 0.00 | 83 | 1011.7 |
| 20260904021618 | 60 | 334 | 0.0 | 0.0 | 0.00 | 0.00 | 0.00 | 82 | 1011.5 |
| 20260904021113 | 60 | 334 | 0.0 | 0.0 | 0.00 | 0.00 | 0.00 | 80 | 1011.5 |
| 20260904020609 | 60 | 334 | 0.0 | 0.0 | 0.00 | 0.00 | 0.00 | 80 | 1011.4 |
| 20260904015557 | 61 | 330 | 0.0 | 0.0 | 0.00 | 0.00 | 0.00 | 81 | 1011.6 |
| 20260904015056 | 61 | 325 | 0.0 | 0.0 | 0.00 | 0.00 | 0.00 | 80 | 1011.4 |
| 20260904014550 | 61 | 324 | 0.0 | 1.0 | 0.00 | 0.00 | 0.00 | 82 | 1011.4 |
| 20260904014046 | 61 | 325 | 0.0 | 0.0 | 0.00 | 0.00 | 0.00 | 81 | 1011.3 |
| 20260904013542 | 61 | 336 | 0.0 | 0.0 | 0.00 | 0.00 | 0.00 | 79 | 1011.3 |
| 20260904013039 | 62 | 328 | 0.0 | 0.0 | 0.00 | 0.00 | 0.00 | 78 | 1011.1 |
| 20260904012539 | 62 | 320 | 0.0 | 0.0 | 0.00 | 0.00 | 0.00 | 78 | 1011.3 |
| 20260904012038 | 61 | 320 | 0.0 | 0.0 | 0.00 | 0.00 | 0.00 | 77 | 1011.2 |
| 20260904011532 | 61 | 320 | 0.0 | 0.0 | 0.00 | 0.00 | 0.00 | 78 | 1011.0 |
| 20260904011027 | 61 | 320 | 0.0 | 0.0 | 0.00 | 0.00 | 0.00 | 79 | 1011.2 |
| 20260904010524 | 61 | 319 | 0.0 | 0.0 | 0.00 | 0.00 | 0.00 | 81 | 1011.2 |
| 20260904010020 | 62 | 343 | 0.0 | 0.0 | 0.00 | 0.00 | 0.00 | 78 | 1010.8 |
| 20260904005519 | 61 | 334 | 0.0 | 0.0 | 0.00 | 0.00 | 0.00 | 77 | 1010.8 |
| 20260904005015 | 61 | 334 | 0.0 | 0.0 | 0.00 | 0.00 | 0.00 | 77 | 1011.0 |
| 20260904004511 | 62 | 334 | 0.0 | 0.0 | 0.00 | 0.00 | 0.00 | 79 | 1011.2 |
| 20260904004011 | 62 | 334 | 0.0 | 0.0 | 0.00 | 0.00 | 0.00 | 75 | 1011.2 |
| 20260904003506 | 62 | 320 | 0.0 | 0.0 | 0.00 | 0.00 | 0.00 | 72 | 1010.8 |
| 20260904003002 | 62 | 347 | 0.0 | 0.0 | 0.00 | 0.00 | 0.00 | 73 | 1010.8 |
| 20260904002458 | 63 | 197 | 1.0 | 1.0 | 0.00 | 0.00 | 0.00 | 72 | 1011.2 |
| 20260904001956 | 64 | 321 | 0.0 | 0.0 | 0.00 | 0.00 | 0.00 | 67 | 1011.1 |
| 20260904001453 | 65 | 316 | 0.0 | 0.0 | 0.00 | 0.00 | 0.00 | 59 | 1011.0 |
| 20260904000947 | 65 | 316 | 0.0 | 0.0 | 0.00 | 0.00 | 0.00 | 66 | 1010.8 |
| 20260904000447 | 64 | 5 | 2.0 | 2.0 | 0.00 | 0.00 | 0.00 | 60 | 1011.0 |
| 20260903235942 | 64 | 345 | 0.0 | 0.0 | 0.00 | 0.00 | 0.00 | 64 | 1011.0 |
| 20260903235438 | 65 | 329 | 0.0 | 0.0 | 0.00 | 0.00 | 0.00 | 65 | 1011.0 |
| 20260903234932 | 65 | 337 | 0.0 | 0.0 | 0.00 | 0.00 | 0.00 | 61 | 1010.8 |
| 20260903234428 | 66 | 240 | 1.0 | 1.0 | 0.00 | 0.00 | 0.00 | 61 | 1011.1 |
| 20260903233924 | 66 | 203 | 3.0 | 5.0 | 0.00 | 0.00 | 0.00 | 58 | 1011.0 |
| 20260903233420 | 67 | 165 | 5.0 | 6.0 | 0.00 | 0.00 | 0.00 | 58 | 1011.0 |
| 20260903232920 | 67 | 140 | 4.0 | 5.0 | 0.00 | 0.00 | 0.00 | 58 | 1011.1 |
| 20260903232415 | 66 | 198 | 3.0 | 3.0 | 0.00 | 0.00 | 0.00 | 60 | 1010.8 |
| 20260903231915 | 66 | 205 | 2.0 | 3.0 | 0.00 | 0.00 | 0.00 | 61 | 1010.8 |
| 20260903231409 | 67 | 298 | 1.0 | 2.0 | 0.00 | 0.00 | 0.00 | 60 | 1011.2 |
| 20260903230904 | 67 | 348 | 1.0 | 1.0 | 0.00 | 0.00 | 0.00 | 60 | 1011.0 |
| 20260903230400 | 67 | 210 | 6.0 | 7.0 | 0.00 | 0.00 | 0.00 | 59 | 1011.1 |
| 20260903225856 | 67 | 69 | 3.0 | 3.0 | 0.00 | 0.00 | 0.00 | 57 | 1011.4 |
| 20260903225352 | 67 | 342 | 2.0 | 2.0 | 0.00 | 0.00 | 0.00 | 57 | 1011.2 |
| 20260903224848 | 67 | 218 | 5.0 | 5.0 | 0.00 | 0.00 | 0.00 | 57 | 1011.3 |
| 20260903224344 | 67 | 191 | 5.0 | 8.0 | 0.00 | 0.00 | 0.00 | 58 | 1011.6 |
| 20260903223839 | 67 | 163 | 3.0 | 3.0 | 0.00 | 0.00 | 0.00 | 60 | 1011.3 |
| 20260903223338 | 67 | 193 | 3.0 | 3.0 | 0.00 | 0.00 | 0.00 | 56 | 1011.5 |
| 20260903222833 | 67 | 175 | 3.0 | 3.0 | 0.00 | 0.00 | 0.00 | 59 | 1011.5 |
| 20260903222332 | 66 | 186 | 1.0 | 2.0 | 0.00 | 0.00 | 0.00 | 64 | 1011.6 |
| 20260903221827 | 65 | 176 | 2.0 | 2.0 | 0.00 | 0.00 | 0.00 | 61 | 1011.6 |
| 20260903221326 | 65 | 249 | 1.0 | 1.0 | 0.00 | 0.00 | 0.00 | 65 | 1011.4 |
| 20260903220824 | 65 | 322 | 0.0 | 0.0 | 0.00 | 0.00 | 0.00 | 65 | 1011.7 |
| 20260903220319 | 65 | 37 | 2.0 | 2.0 | 0.00 | 0.00 | 0.00 | 63 | 1011.8 |
| 20260903215817 | 65 | 266 | 1.0 | 3.0 | 0.00 | 0.00 | 0.00 | 62 | 1011.7 |
| 20260903215314 | 65 | 146 | 3.0 | 3.0 | 0.00 | 0.00 | 0.00 | 64 | 1011.9 |
| 20260903214811 | 65 | 344 | 1.0 | 1.0 | 0.00 | 0.00 | 0.00 | 65 | 1011.7 |
| 20260903214308 | 65 | 286 | 1.0 | 1.0 | 0.00 | 0.00 | 0.00 | 63 | 1012.0 |
| 20260903213802 | 65 | 166 | 4.0 | 5.0 | 0.00 | 0.00 | 0.00 | 64 | 1011.9 |
| 20260903213258 | 65 | 257 | 1.0 | 1.0 | 0.00 | 0.00 | 0.00 | 66 | 1012.3 |
| 20260903212754 | 64 | 69 | 3.0 | 3.0 | 0.00 | 0.00 | 0.00 | 64 | 1012.1 |
| 20260903212250 | 65 | 140 | 2.0 | 3.0 | 0.00 | 0.00 | 0.00 | 63 | 1012.1 |
| 20260903211749 | 65 | 212 | 1.0 | 2.0 | 0.00 | 0.00 | 0.00 | 65 | 1011.9 |
| 20260903211246 | 65 | 139 | 4.0 | 5.0 | 0.00 | 0.00 | 0.00 | 65 | 1012.0 |
| 20260903210741 | 64 | 156 | 1.0 | 2.0 | 0.00 | 0.00 | 0.00 | 65 | 1011.9 |
| 20260903210236 | 64 | 200 | 4.0 | 5.0 | 0.00 | 0.00 | 0.00 | 65 | 1012.0 |
| 20260903205730 | 64 | 224 | 3.0 | 3.0 | 0.00 | 0.00 | 0.00 | 66 | 1012.1 |
| 20260903205229 | 64 | 180 | 4.0 | 5.0 | 0.00 | 0.00 | 0.00 | 68 | 1012.1 |
| 20260903204725 | 64 | 106 | 3.0 | 3.0 | 0.00 | 0.00 | 0.00 | 64 | 1011.8 |
| 20260903204221 | 64 | 133 | 3.0 | 3.0 | 0.00 | 0.00 | 0.00 | 66 | 1012.0 |
| 20260903203717 | 64 | 169 | 4.0 | 6.0 | 0.00 | 0.00 | 0.00 | 67 | 1011.9 |
| 20260903203212 | 64 | 279 | 1.0 | 1.0 | 0.00 | 0.00 | 0.00 | 67 | 1011.8 |
| 20260903202706 | 64 | 152 | 3.0 | 3.0 | 0.00 | 0.00 | 0.00 | 64 | 1011.9 |
| 20260903202202 | 64 | 355 | 1.0 | 2.0 | 0.00 | 0.00 | 0.00 | 65 | 1012.0 |
| 20260903201701 | 64 | 208 | 2.0 | 3.0 | 0.00 | 0.00 | 0.00 | 66 | 1011.8 |
| 20260903201156 | 64 | 54 | 0.0 | 1.0 | 0.00 | 0.00 | 0.00 | 66 | 1011.9 |
| 20260903200650 | 64 | 352 | 0.0 | 0.0 | 0.00 | 0.00 | 0.00 | 64 | 1012.0 |
| 20260903200146 | 64 | 77 | 2.0 | 2.0 | 0.00 | 0.00 | 0.00 | 68 | 1011.9 |
| 20260903195642 | 64 | 260 | 0.0 | 1.0 | 0.00 | 0.00 | 0.00 | 68 | 1012.0 |
| 20260903195138 | 64 | 34 | 1.0 | 1.0 | 0.00 | 0.00 | 0.00 | 68 | 1011.8 |
| 20260903194638 | 64 | 300 | 0.0 | 0.0 | 0.00 | 0.00 | 0.00 | 68 | 1011.9 |
| 20260903194138 | 64 | 306 | 0.0 | 0.0 | 0.00 | 0.00 | 0.00 | 67 | 1011.8 |
| 20260903193633 | 64 | 291 | 0.0 | 0.0 | 0.00 | 0.00 | 0.00 | 66 | 1011.6 |
| 20260903193129 | 65 | 225 | 3.0 | 3.0 | 0.00 | 0.00 | 0.00 | 68 | 1011.6 |
| 20260903192626 | 65 | 316 | 0.0 | 0.0 | 0.00 | 0.00 | 0.00 | 67 | 1011.6 |
| 20260903192120 | 64 | 351 | 0.0 | 0.0 | 0.00 | 0.00 | 0.00 | 70 | 1011.6 |
| 20260903191616 | 64 | 210 | 2.0 | 2.0 | 0.00 | 0.00 | 0.00 | 70 | 1011.5 |
| 20260903191111 | 64 | 310 | 0.0 | 0.0 | 0.00 | 0.00 | 0.00 | 72 | 1011.6 |
| 20260903190610 | 63 | 327 | 0.0 | 1.0 | 0.00 | 0.00 | 0.00 | 70 | 1011.7 |
| 20260903190105 | 63 | 34 | 2.0 | 2.0 | 0.00 | 0.00 | 0.00 | 70 | 1011.7 |
| 20260903185600 | 63 | 339 | 0.0 | 0.0 | 0.00 | 0.00 | 0.00 | 70 | 1011.9 |
| 20260903185056 | 63 | 190 | 2.0 | 3.0 | 0.00 | 0.00 | 0.00 | 74 | 1011.8 |
| 20260903184552 | 63 | 291 | 1.0 | 1.0 | 0.00 | 0.00 | 0.00 | 73 | 1011.8 |
| 20260903184047 | 63 | 302 | 0.0 | 0.0 | 0.00 | 0.00 | 0.00 | 72 | 1011.7 |
| 20260903183546 | 62 | 170 | 3.0 | 5.0 | 0.00 | 0.00 | 0.00 | 73 | 1011.8 |
| 20260903183041 | 62 | 228 | 2.0 | 2.0 | 0.00 | 0.00 | 0.00 | 73 | 1011.6 |
| 20260903182539 | 62 | 335 | 0.0 | 0.0 | 0.00 | 0.00 | 0.00 | 74 | 1011.7 |
| 20260903182037 | 62 | 167 | 3.0 | 3.0 | 0.00 | 0.00 | 0.00 | 74 | 1011.6 |
| 20260903181534 | 62 | 105 | 4.0 | 5.0 | 0.00 | 0.00 | 0.00 | 72 | 1011.5 |
| 20260903181034 | 61 | 118 | 1.0 | 2.0 | 0.00 | 0.00 | 0.00 | 74 | 1011.7 |
| 20260903180530 | 61 | 138 | 3.0 | 3.0 | 0.00 | 0.00 | 0.00 | 78 | 1011.6 |
| 20260903180029 | 61 | 260 | 1.0 | 2.0 | 0.00 | 0.00 | 0.00 | 76 | 1011.6 |
| 20260903175528 | 61 | 184 | 3.0 | 5.0 | 0.00 | 0.00 | 0.00 | 76 | 1011.5 |
| 20260903175028 | 61 | 195 | 3.0 | 3.0 | 0.00 | 0.00 | 0.00 | 75 | 1011.5 |
| 20260903174523 | 61 | 285 | 1.0 | 1.0 | 0.00 | 0.00 | 0.00 | 76 | 1011.4 |
| 20260903174018 | 61 | 199 | 4.0 | 5.0 | 0.00 | 0.00 | 0.00 | 75 | 1011.6 |
| 20260903173512 | 61 | 166 | 2.0 | 2.0 | 0.00 | 0.00 | 0.00 | 77 | 1011.5 |
| 20260903173009 | 61 | 194 | 2.0 | 3.0 | 0.00 | 0.00 | 0.00 | 75 | 1011.3 |
| 20260903172503 | 61 | 331 | 0.0 | 0.0 | 0.00 | 0.00 | 0.00 | 77 | 1011.3 |
| 20260903171959 | 60 | 68 | 3.0 | 3.0 | 0.00 | 0.00 | 0.00 | 75 | 1011.3 |
| 20260903171454 | 60 | 163 | 4.0 | 5.0 | 0.00 | 0.00 | 0.00 | 77 | 1011.3 |
| 20260903170948 | 60 | 352 | 1.0 | 1.0 | 0.00 | 0.00 | 0.00 | 77 | 1011.5 |
| 20260903170443 | 59 | 187 | 1.0 | 2.0 | 0.00 | 0.00 | 0.00 | 78 | 1011.3 |
| 20260903165943 | 59 | 167 | 3.0 | 3.0 | 0.00 | 0.00 | 0.00 | 78 | 1011.4 |
| 20260903165442 | 59 | 168 | 1.0 | 2.0 | 0.00 | 0.00 | 0.00 | 78 | 1011.4 |
| 20260903164937 | 59 | 142 | 1.0 | 2.0 | 0.00 | 0.00 | 0.00 | 77 | 1011.5 |
| 20260903164432 | 59 | 159 | 3.0 | 5.0 | 0.00 | 0.00 | 0.00 | 78 | 1011.2 |
| 20260903163931 | 59 | 295 | 1.0 | 1.0 | 0.00 | 0.00 | 0.00 | 77 | 1011.3 |
| 20260903163428 | 58 | 173 | 2.0 | 2.0 | 0.00 | 0.00 | 0.00 | 81 | 1011.4 |
| 20260903162924 | 57 | 319 | 1.0 | 1.0 | 0.00 | 0.00 | 0.00 | 83 | 1011.4 |
| 20260903162420 | 56 | 341 | 0.0 | 0.0 | 0.00 | 0.00 | 0.00 | 86 | 1011.4 |
| 20260903161915 | 56 | 288 | 1.0 | 1.0 | 0.00 | 0.00 | 0.00 | 86 | 1011.5 |
| 20260903161410 | 55 | 178 | 2.0 | 3.0 | 0.00 | 0.00 | 0.00 | 86 | 1011.5 |
| 20260903160906 | 55 | 309 | 0.0 | 0.0 | 0.00 | 0.00 | 0.00 | 89 | 1011.5 |
| 20260903160405 | 55 | 233 | 2.0 | 2.0 | 0.00 | 0.00 | 0.00 | 87 | 1011.4 |
| 20260903155904 | 55 | 318 | 0.0 | 1.0 | 0.00 | 0.00 | 0.00 | 87 | 1011.2 |
| 20260903155359 | 54 | 181 | 3.0 | 5.0 | 0.00 | 0.00 | 0.00 | 87 | 1011.3 |
| 20260903154855 | 54 | 211 | 2.0 | 2.0 | 0.00 | 0.00 | 0.00 | 87 | 1011.4 |
| 20260903154351 | 54 | 204 | 2.0 | 2.0 | 0.00 | 0.00 | 0.00 | 87 | 1011.1 |
| 20260903153851 | 54 | 278 | 0.0 | 1.0 | 0.00 | 0.00 | 0.00 | 88 | 1011.0 |
| 20260903153347 | 54 | 245 | 2.0 | 2.0 | 0.00 | 0.00 | 0.00 | 87 | 1011.1 |
| 20260903152843 | 54 | 195 | 1.0 | 2.0 | 0.00 | 0.00 | 0.00 | 87 | 1011.3 |
| 20260903152338 | 54 | 200 | 3.0 | 3.0 | 0.00 | 0.00 | 0.00 | 87 | 1011.2 |
| 20260903151833 | 53 | 3 | 1.0 | 1.0 | 0.00 | 0.00 | 0.00 | 87 | 1011.0 |
| 20260903151329 | 53 | 176 | 3.0 | 3.0 | 0.00 | 0.00 | 0.00 | 88 | 1011.2 |
| 20260903150828 | 53 | 143 | 2.0 | 2.0 | 0.00 | 0.00 | 0.00 | 88 | 1011.1 |
| 20260903150323 | 53 | 278 | 1.0 | 1.0 | 0.00 | 0.00 | 0.00 | 88 | 1011.0 |
| 20260903145818 | 53 | 261 | 1.0 | 1.0 | 0.00 | 0.00 | 0.00 | 89 | 1010.8 |
| 20260903145313 | 53 | 319 | 0.0 | 0.0 | 0.00 | 0.00 | 0.00 | 88 | 1011.0 |
| 20260903144813 | 53 | 244 | 2.0 | 2.0 | 0.00 | 0.00 | 0.00 | 87 | 1011.1 |
| 20260903144308 | 53 | 225 | 2.0 | 2.0 | 0.00 | 0.00 | 0.00 | 88 | 1011.0 |
| 20260903143803 | 52 | 53 | 1.0 | 1.0 | 0.00 | 0.00 | 0.00 | 88 | 1011.0 |
| 20260903143300 | 52 | 218 | 2.0 | 2.0 | 0.00 | 0.00 | 0.00 | 90 | 1010.6 |
| 20260903142755 | 52 | 323 | 0.0 | 0.0 | 0.00 | 0.00 | 0.00 | 90 | 1010.6 |
| 20260903142251 | 52 | 355 | 0.0 | 0.0 | 0.00 | 0.00 | 0.00 | 90 | 1010.6 |
| 20260903141747 | 51 | 290 | 0.0 | 0.0 | 0.00 | 0.00 | 0.00 | 90 | 1010.7 |
| 20260903141242 | 51 | 3 | 0.0 | 1.0 | 0.00 | 0.00 | 0.00 | 91 | 1010.7 |
| 20260903140737 | 51 | 345 | 0.0 | 0.0 | 0.00 | 0.00 | 0.00 | 91 | 1010.7 |
| 20260903140232 | 50 | 319 | 0.0 | 0.0 | 0.00 | 0.00 | 0.00 | 92 | 1010.5 |
| 20260903135728 | 50 | 289 | 1.0 | 1.0 | 0.00 | 0.00 | 0.00 | 94 | 1010.8 |
| 20260903135223 | 50 | 336 | 0.0 | 0.0 | 0.00 | 0.00 | 0.00 | 95 | 1010.4 |
| 20260903134721 | 50 | 346 | 0.0 | 0.0 | 0.00 | 0.00 | 0.00 | 95 | 1010.3 |
| 20260903134218 | 50 | 351 | 0.0 | 0.0 | 0.00 | 0.00 | 0.00 | 95 | 1010.5 |
| 20260903133715 | 50 | 343 | 2.0 | 2.0 | 0.00 | 0.00 | 0.00 | 94 | 1010.3 |
| 20260903133212 | 49 | 348 | 0.0 | 0.0 | 0.00 | 0.00 | 0.00 | 95 | 1010.3 |
| 20260903132711 | 50 | 210 | 2.0 | 2.0 | 0.00 | 0.00 | 0.00 | 93 | 1010.2 |
| 20260903132206 | 50 | 357 | 0.0 | 0.0 | 0.00 | 0.00 | 0.00 | 94 | 1010.3 |
| 20260903131701 | 50 | 219 | 1.0 | 2.0 | 0.00 | 0.00 | 0.00 | 94 | 1010.2 |
| 20260903131201 | 50 | 344 | 0.0 | 0.0 | 0.00 | 0.00 | 0.00 | 93 | 1010.1 |
| 20260903130656 | 50 | 314 | 0.0 | 0.0 | 0.00 | 0.00 | 0.00 | 93 | 1010.1 |
| 20260903130150 | 50 | 69 | 1.0 | 1.0 | 0.00 | 0.00 | 0.00 | 95 | 1010.0 |
| 20260903125648 | 50 | 288 | 1.0 | 1.0 | 0.00 | 0.00 | 0.00 | 96 | 1010.1 |
| 20260903125144 | 50 | 336 | 0.0 | 0.0 | 0.00 | 0.00 | 0.00 | 95 | 1010.0 |
| 20260903124643 | 50 | 349 | 1.0 | 1.0 | 0.00 | 0.00 | 0.00 | 95 | 1010.0 |
| 20260903124137 | 50 | 344 | 0.0 | 0.0 | 0.00 | 0.00 | 0.00 | 94 | 1009.8 |
| 20260903123631 | 50 | 322 | 0.0 | 0.0 | 0.00 | 0.00 | 0.00 | 93 | 1009.8 |
| 20260903123131 | 50 | 323 | 0.0 | 0.0 | 0.00 | 0.00 | 0.00 | 92 | 1009.9 |
| 20260903122631 | 50 | 318 | 0.0 | 0.0 | 0.00 | 0.00 | 0.00 | 92 | 1010.0 |
| 20260903122130 | 50 | 3 | 0.0 | 0.0 | 0.00 | 0.00 | 0.00 | 93 | 1009.8 |
| 20260903121629 | 50 | 271 | 0.0 | 0.0 | 0.00 | 0.00 | 0.00 | 93 | 1009.6 |
| 20260903121126 | 51 | 216 | 1.0 | 2.0 | 0.00 | 0.00 | 0.00 | 92 | 1009.5 |
| 20260903120624 | 51 | 330 | 0.0 | 0.0 | 0.00 | 0.00 | 0.00 | 92 | 1009.8 |
| 20260903120119 | 51 | 294 | 0.0 | 0.0 | 0.00 | 0.00 | 0.00 | 92 | 1009.6 |
| 20260903115617 | 51 | 329 | 0.0 | 0.0 | 0.00 | 0.00 | 0.00 | 91 | 1009.5 |
| 20260903115113 | 52 | 193 | 2.0 | 2.0 | 0.00 | 0.00 | 0.00 | 90 | 1009.5 |
| 20260903114608 | 52 | 207 | 2.0 | 3.0 | 0.00 | 0.00 | 0.00 | 90 | 1009.6 |
| 20260903114103 | 52 | 235 | 0.0 | 0.0 | 0.00 | 0.00 | 0.00 | 88 | 1009.5 |
| 20260903113559 | 53 | 229 | 1.0 | 2.0 | 0.00 | 0.00 | 0.00 | 86 | 1009.4 |
| 20260903113055 | 54 | 199 | 2.0 | 2.0 | 0.00 | 0.00 | 0.00 | 84 | 1009.5 |
| 20260903112551 | 53 | 213 | 2.0 | 2.0 | 0.00 | 0.00 | 0.00 | 85 | 1009.3 |
| 20260903112050 | 54 | 313 | 0.0 | 1.0 | 0.00 | 0.00 | 0.00 | 87 | 1009.1 |
| 20260903111549 | 53 | 322 | 1.0 | 2.0 | 0.00 | 0.00 | 0.00 | 84 | 1009.4 |
| 20260903111046 | 53 | 298 | 1.0 | 1.0 | 0.00 | 0.00 | 0.00 | 88 | 1009.2 |
| 20260903110542 | 54 | 130 | 1.0 | 1.0 | 0.00 | 0.00 | 0.00 | 88 | 1009.3 |
| 20260903110036 | 54 | 132 | 4.0 | 5.0 | 0.00 | 0.00 | 0.00 | 82 | 1009.0 |
| 20260903105531 | 52 | 351 | 0.0 | 1.0 | 0.00 | 0.00 | 0.00 | 92 | 1008.8 |
| 20260903105025 | 53 | 198 | 1.0 | 1.0 | 0.00 | 0.00 | 0.00 | 90 | 1009.0 |
| 20260903104520 | 53 | 58 | 1.0 | 2.0 | 0.00 | 0.00 | 0.00 | 89 | 1009.0 |
| 20260903104016 | 53 | 329 | 0.0 | 0.0 | 0.00 | 0.00 | 0.00 | 91 | 1008.9 |
| 20260903103512 | 53 | 339 | 0.0 | 0.0 | 0.00 | 0.00 | 0.00 | 90 | 1009.0 |
| 20260903103008 | 53 | 313 | 0.0 | 0.0 | 0.00 | 0.00 | 0.00 | 89 | 1008.9 |
| 20260903102503 | 54 | 342 | 0.0 | 0.0 | 0.00 | 0.00 | 0.00 | 88 | 1008.8 |
| 20260903102002 | 54 | 292 | 0.0 | 0.0 | 0.00 | 0.00 | 0.00 | 85 | 1008.9 |
| 20260903101456 | 55 | 170 | 2.0 | 3.0 | 0.00 | 0.00 | 0.00 | 85 | 1008.7 |
| 20260903100952 | 55 | 162 | 2.0 | 2.0 | 0.00 | 0.00 | 0.00 | 82 | 1008.7 |
| 20260903100447 | 55 | 38 | 0.0 | 1.0 | 0.00 | 0.00 | 0.00 | 83 | 1008.7 |
| 20260903095944 | 57 | 279 | 1.0 | 1.0 | 0.00 | 0.00 | 0.00 | 79 | 1008.7 |
| 20260903095438 | 57 | 45 | 0.0 | 0.0 | 0.00 | 0.00 | 0.00 | 75 | 1008.5 |
| 20260903094933 | 58 | 155 | 3.0 | 5.0 | 0.00 | 0.00 | 0.00 | 75 | 1008.7 |
| 20260903094432 | 57 | 0 | 4.0 | 5.0 | 0.00 | 0.00 | 0.00 | 77 | 1008.8 |
| 20260903093929 | 56 | 26 | 1.0 | 1.0 | 0.00 | 0.00 | 0.00 | 80 | 1008.6 |
| 20260903093424 | 56 | 331 | 0.0 | 0.0 | 0.00 | 0.00 | 0.00 | 78 | 1008.7 |
| 20260903092920 | 55 | 195 | 3.0 | 3.0 | 0.00 | 0.00 | 0.00 | 83 | 1008.8 |
| 20260903092419 | 57 | 142 | 1.0 | 1.0 | 0.00 | 0.00 | 0.00 | 82 | 1008.6 |
| 20260903091918 | 58 | 168 | 2.0 | 3.0 | 0.00 | 0.00 | 0.00 | 76 | 1008.6 |
| 20260903091417 | 59 | 23 | 0.0 | 1.0 | 0.00 | 0.00 | 0.00 | 73 | 1008.5 |
| 20260903090912 | 58 | 70 | 0.0 | 1.0 | 0.00 | 0.00 | 0.00 | 73 | 1008.7 |
| 20260903090408 | 58 | 53 | 1.0 | 1.0 | 0.00 | 0.00 | 0.00 | 74 | 1008.7 |
| 20260903085906 | 58 | 151 | 0.0 | 1.0 | 0.00 | 0.00 | 0.00 | 76 | 1008.8 |
| 20260903085405 | 57 | 24 | 2.0 | 2.0 | 0.00 | 0.00 | 0.00 | 79 | 1008.6 |
| 20260903084905 | 56 | 342 | 0.0 | 1.0 | 0.00 | 0.00 | 0.00 | 79 | 1008.7 |
| 20260903084403 | 55 | 1 | 0.0 | 0.0 | 0.00 | 0.00 | 0.00 | 86 | 1008.8 |
| 20260903083859 | 56 | 345 | 0.0 | 0.0 | 0.00 | 0.00 | 0.00 | 86 | 1008.8 |
| 20260903083354 | 56 | 188 | 0.0 | 1.0 | 0.00 | 0.00 | 0.00 | 85 | 1008.6 |
| 20260903082853 | 57 | 347 | 0.0 | 0.0 | 0.00 | 0.00 | 0.00 | 82 | 1009.0 |
| 20260903082348 | 56 | 254 | 1.0 | 1.0 | 0.00 | 0.00 | 0.00 | 83 | 1008.9 |
| 20260903081844 | 58 | 19 | 0.0 | 0.0 | 0.00 | 0.00 | 0.00 | 81 | 1008.6 |
| 20260903081339 | 58 | 17 | 1.0 | 1.0 | 0.00 | 0.00 | 0.00 | 78 | 1008.6 |
| 20260903080835 | 56 | 9 | 1.0 | 1.0 | 0.00 | 0.00 | 0.00 | 83 | 1008.6 |
| 20260903080332 | 57 | 352 | 0.0 | 0.0 | 0.00 | 0.00 | 0.00 | 83 | 1009.0 |
| 20260903075831 | 58 | 263 | 1.0 | 1.0 | 0.00 | 0.00 | 0.00 | 79 | 1008.8 |
| 20260903075327 | 59 | 62 | 1.0 | 1.0 | 0.00 | 0.00 | 0.00 | 77 | 1008.7 |
| 20260903074827 | 58 | 158 | 2.0 | 2.0 | 0.00 | 0.00 | 0.00 | 76 | 1008.7 |
| 20260903074321 | 58 | 355 | 0.0 | 0.0 | 0.00 | 0.00 | 0.00 | 77 | 1008.5 |
| 20260903073817 | 58 | 150 | 2.0 | 3.0 | 0.00 | 0.00 | 0.00 | 77 | 1008.5 |
| 20260903073312 | 58 | 28 | 0.0 | 1.0 | 0.00 | 0.00 | 0.00 | 77 | 1008.3 |
| 20260903072808 | 58 | 68 | 4.0 | 6.0 | 0.00 | 0.00 | 0.00 | 77 | 1008.3 |
| 20260903072306 | 59 | 246 | 1.0 | 1.0 | 0.00 | 0.00 | 0.00 | 77 | 1008.3 |
| 20260903071801 | 59 | 350 | 0.0 | 0.0 | 0.00 | 0.00 | 0.00 | 76 | 1008.2 |
| 20260903071256 | 59 | 22 | 4.0 | 6.0 | 0.00 | 0.00 | 0.00 | 75 | 1008.2 |
| 20260903070756 | 59 | 339 | 0.0 | 0.0 | 0.00 | 0.00 | 0.00 | 75 | 1008.1 |
| 20260903070252 | 59 | 18 | 0.0 | 1.0 | 0.00 | 0.00 | 0.00 | 77 | 1008.1 |
| 20260903065747 | 58 | 178 | 2.0 | 5.0 | 0.00 | 0.03 | 0.03 | 79 | 1008.2 |
| 20260903065246 | 58 | 51 | 1.0 | 1.0 | 0.00 | 0.03 | 0.03 | 80 | 1008.1 |
| 20260903064745 | 59 | 5 | 0.0 | 0.0 | 0.00 | 0.03 | 0.03 | 77 | 1008.4 |
| 20260903064240 | 59 | 4 | 0.0 | 0.0 | 0.00 | 0.03 | 0.03 | 76 | 1008.1 |
| 20260903063737 | 59 | 342 | 0.0 | 1.0 | 0.00 | 0.03 | 0.03 | 76 | 1008.1 |
| 20260903063231 | 60 | 9 | 1.0 | 1.0 | 0.00 | 0.03 | 0.03 | 74 | 1008.1 |
| 20260903062727 | 59 | 72 | 4.0 | 6.0 | 0.00 | 0.03 | 0.03 | 75 | 1008.0 |
| 20260903062227 | 60 | 100 | 1.0 | 1.0 | 0.00 | 0.03 | 0.03 | 75 | 1008.1 |
| 20260903061723 | 60 | 153 | 2.0 | 3.0 | 0.00 | 0.03 | 0.03 | 74 | 1008.0 |
| 20260903061221 | 60 | 19 | 2.0 | 2.0 | 0.00 | 0.03 | 0.03 | 73 | 1007.9 |
| 20260903060717 | 60 | 188 | 4.0 | 6.0 | 0.00 | 0.03 | 0.03 | 74 | 1007.9 |
| 20260903060212 | 60 | 211 | 2.0 | 2.0 | 0.00 | 0.03 | 0.03 | 73 | 1008.1 |
| 20260903055709 | 61 | 316 | 0.0 | 0.0 | 0.00 | 0.03 | 0.03 | 73 | 1008.1 |
| 20260903055208 | 60 | 20 | 2.0 | 2.0 | 0.00 | 0.03 | 0.03 | 74 | 1008.4 |
| 20260903054702 | 61 | 102 | 3.0 | 5.0 | 0.00 | 0.03 | 0.03 | 73 | 1008.1 |
| 20260903054153 | 61 | 190 | 1.0 | 3.0 | 0.00 | 0.03 | 0.03 | 73 | 1008.3 |
| 20260903053649 | 61 | 175 | 5.0 | 7.0 | 0.00 | 0.03 | 0.03 | 72 | 1008.3 |
| 20260903053144 | 61 | 16 | 2.0 | 2.0 | 0.00 | 0.03 | 0.03 | 71 | 1008.3 |
| 20260903052640 | 61 | 160 | 5.0 | 6.0 | 0.00 | 0.03 | 0.03 | 71 | 1008.3 |
| 20260903052135 | 61 | 67 | 1.0 | 2.0 | 0.00 | 0.03 | 0.03 | 71 | 1008.0 |
| 20260903051630 | 61 | 12 | 5.0 | 7.0 | 0.00 | 0.03 | 0.03 | 70 | 1008.0 |
| 20260903051126 | 61 | 30 | 3.0 | 6.0 | 0.00 | 0.03 | 0.03 | 71 | 1007.8 |
| 20260903050625 | 61 | 96 | 3.0 | 3.0 | 0.00 | 0.03 | 0.03 | 70 | 1007.9 |
| 20260903050120 | 62 | 145 | 3.0 | 5.0 | 0.00 | 0.03 | 0.03 | 69 | 1007.9 |
| 20260903045620 | 62 | 30 | 4.0 | 5.0 | 0.00 | 0.03 | 0.03 | 69 | 1008.0 |
| 20260903045117 | 62 | 247 | 2.0 | 5.0 | 0.00 | 0.03 | 0.03 | 69 | 1007.7 |
| 20260903044612 | 62 | 28 | 2.0 | 5.0 | 0.00 | 0.03 | 0.03 | 69 | 1007.7 |
| 20260903044108 | 62 | 77 | 2.0 | 3.0 | 0.00 | 0.03 | 0.03 | 69 | 1007.6 |
| 20260903043604 | 62 | 291 | 1.0 | 1.0 | 0.00 | 0.03 | 0.03 | 70 | 1007.5 |
| 20260903043103 | 62 | 171 | 3.0 | 5.0 | 0.00 | 0.03 | 0.03 | 71 | 1007.4 |
| 20260903042557 | 61 | 342 | 0.0 | 0.0 | 0.00 | 0.03 | 0.03 | 72 | 1007.2 |
| 20260903042053 | 61 | 2 | 1.0 | 1.0 | 0.00 | 0.03 | 0.03 | 74 | 1007.1 |
| 20260903041549 | 62 | 63 | 2.0 | 2.0 | 0.00 | 0.03 | 0.03 | 74 | 1007.0 |
| 20260903041044 | 62 | 204 | 5.0 | 7.0 | 0.00 | 0.03 | 0.03 | 75 | 1006.7 |
| 20260903040543 | 62 | 195 | 3.0 | 5.0 | 0.00 | 0.03 | 0.03 | 75 | 1006.7 |
| 20260903040040 | 62 | 111 | 6.0 | 7.0 | 0.00 | 0.03 | 0.03 | 75 | 1006.5 |
| 20260903035540 | 62 | 123 | 5.0 | 6.0 | 0.00 | 0.03 | 0.03 | 76 | 1006.3 |
| 20260903035036 | 61 | 29 | 1.0 | 2.0 | 0.00 | 0.03 | 0.03 | 80 | 1006.4 |
| 20260903034531 | 61 | 38 | 0.0 | 1.0 | 0.00 | 0.03 | 0.03 | 81 | 1006.4 |
| 20260903034026 | 61 | 335 | 0.0 | 1.0 | 0.00 | 0.03 | 0.03 | 80 | 1006.2 |
| 20260903033521 | 61 | 113 | 3.0 | 3.0 | 0.00 | 0.03 | 0.03 | 80 | 1005.8 |
| 20260903033017 | 61 | 112 | 1.0 | 1.0 | 0.00 | 0.03 | 0.03 | 82 | 1005.9 |